EA5CH Weather Reports


Display with metric or nautical units.
time (UTC)temp
F
wind
direction
speed
MPH
gust
MPH
rain 1hr
in
rain 24hr
in
rain mn
in
humidity
%
barometer
mb
20260504050518 63 0.0 1.0 0.00 0.03 0.03 94 1014.0
20260504045518 63 225 1.0 3.0 0.00 0.03 0.03 94 1013.9
20260504044538 63 0.0 2.0 0.00 0.03 0.03 94 1013.9
20260504043518 63 0.0 0.0 0.00 0.03 0.03 94 1013.9
20260504042518 63 0.0 1.0 0.01 0.03 0.03 94 1013.8
20260504041518 62 0.0 1.0 0.01 0.03 0.03 94 1013.9
20260504040558 62 0.0 1.0 0.02 0.03 0.03 94 1013.9
20260504035518 63 0.0 0.0 0.02 0.03 0.03 94 1014.0
20260504034518 62 0.0 0.0 0.02 0.03 0.03 94 1014.2
20260504033518 62 270 1.0 2.0 0.02 0.03 0.03 94 1014.4
20260504032518 63 293 1.0 3.0 0.01 0.02 0.02 94 1014.4
20260504031518 63 270 1.0 3.0 0.02 0.02 0.02 94 1014.6
20260504030518 63 270 1.0 2.0 0.02 0.02 0.02 93 1014.8
20260504025538 63 270 1.0 2.0 0.02 0.02 0.02 93 1014.8
20260504024518 63 270 1.0 2.0 0.02 0.02 0.02 92 1014.8
20260504023518 63 270 2.0 3.0 0.02 0.02 0.02 92 1014.8
20260504022518 63 0.0 2.0 0.02 0.02 0.02 90 1014.8
20260504021518 63 0.0 1.0 0.00 0.00 0.00 90 1014.8
20260504020518 64 0.0 1.0 0.00 0.00 0.00 89 1014.9
20260504015518 64 0.0 1.0 0.00 0.00 0.00 89 1015.0
20260504014519 64 0.0 1.0 0.00 0.00 0.00 88 1014.9
20260504013518 64 0.0 3.0 0.00 0.00 0.00 88 1014.8
20260504012518 65 113 1.0 5.0 0.00 0.00 0.00 87 1014.8
20260504011538 65 90 1.0 4.0 0.00 0.00 0.00 86 1014.9
20260504010518 66 135 1.0 3.0 0.00 0.00 0.00 82 1014.9
20260504005518 66 90 1.0 5.0 0.00 0.00 0.00 80 1014.9
20260504004518 66 0.0 2.0 0.00 0.00 0.00 79 1014.8
20260504003519 66 0.0 0.0 0.00 0.00 0.00 79 1014.7
20260504002559 66 0.0 0.0 0.00 0.00 0.00 79 1014.7
20260504001518 66 0.0 1.0 0.00 0.00 0.00 79 1014.8
20260504000518 66 0.0 1.0 0.00 0.00 0.00 79 1014.8
20260503235518 66 0.0 1.0 0.00 0.00 0.00 79 1014.9
20260503234518 66 0.0 2.0 0.00 0.00 0.00 80 1015.1
20260503233559 65 0 1.0 4.0 0.00 0.00 0.00 81 1015.1
20260503232538 65 338 1.0 4.0 0.00 0.00 0.00 82 1015.3
20260503231538 65 0 2.0 5.0 0.00 0.00 0.00 84 1015.4
20260503230539 65 23 2.0 5.0 0.00 0.00 0.00 86 1015.4
20260503225518 65 23 1.0 4.0 0.00 0.00 0.00 87 1015.5
20260503224518 65 23 3.0 6.0 0.00 0.00 0.00 87 1015.6
20260503223518 65 45 2.0 4.0 0.00 0.00 0.00 87 1015.6
20260503222519 65 0.0 1.0 0.00 0.00 0.00 87 1015.8
20260503221519 65 0.0 2.0 0.00 0.00 0.00 87 1015.9
20260503220518 65 0.0 1.0 0.00 0.00 0.00 87 1015.9
20260503215538 65 0.0 1.0 0.00 0.00 0.00 87 1016.0
20260503214518 65 0.0 1.0 0.00 0.00 0.00 87 1015.9
20260503213518 65 0.0 2.0 0.00 0.00 0.00 87 1015.9
20260503212518 65 0.0 2.0 0.00 0.00 0.00 87 1016.0
20260503211518 65 68 1.0 2.0 0.00 0.00 0.00 87 1016.1
20260503210518 65 0.0 2.0 0.00 0.00 0.00 87 1016.0
20260503205518 65 68 1.0 3.0 0.00 0.00 0.00 86 1016.0
20260503204518 65 68 1.0 3.0 0.00 0.00 0.00 86 1015.9
20260503203518 65 68 2.0 6.0 0.00 0.00 0.00 86 1015.9
20260503202518 65 113 2.0 6.0 0.00 0.00 0.00 86 1015.7
20260503201519 65 90 1.0 6.0 0.00 0.00 0.00 87 1015.5
20260503200519 65 113 1.0 5.0 0.00 0.00 0.00 87 1015.3
20260503195518 66 113 2.0 6.0 0.00 0.00 0.00 87 1015.2
20260503194519 65 113 2.0 6.0 0.00 0.00 0.00 86 1014.9
20260503193519 65 113 3.0 7.0 0.00 0.00 0.00 86 1014.5
20260503192538 65 113 1.0 5.0 0.00 0.00 0.00 86 1014.4
20260503191518 65 113 3.0 7.0 0.00 0.00 0.00 86 1014.2
20260503190518 65 90 2.0 7.0 0.00 0.00 0.00 86 1014.3
20260503185538 65 45 1.0 7.0 0.00 0.00 0.00 86 1014.2
20260503184518 66 68 1.0 7.0 0.00 0.00 0.00 86 1014.2
20260503183538 65 68 2.0 6.0 0.00 0.00 0.00 87 1014.2
20260503182518 66 90 2.0 7.0 0.00 0.00 0.00 86 1014.0
20260503181518 66 90 2.0 9.0 0.00 0.00 0.00 86 1014.0
20260503180518 66 45 3.0 8.0 0.00 0.00 0.00 86 1013.9
20260503175519 66 113 3.0 10.0 0.00 0.00 0.00 86 1014.1
20260503174518 66 225 1.0 5.0 0.00 0.00 0.00 87 1013.9
20260503173518 66 45 3.0 9.0 0.00 0.00 0.00 86 1013.8
20260503172518 66 68 3.0 11.0 0.00 0.00 0.00 86 1013.8
20260503171519 66 90 4.0 10.0 0.00 0.00 0.00 86 1013.7
20260503170519 67 225 3.0 11.0 0.00 0.00 0.00 85 1013.8
20260503150518 70 68 4.0 10.0 0.00 0.00 0.00 77 1014.2
20260503130519 70 113 4.0 10.0 0.00 0.00 0.00 76 1015.2
20260503110518 70 135 4.0 9.0 0.00 0.00 0.00 76 1016.1
20260503081539 64 68 1.0 5.0 0.00 0.00 0.00 86 1017.6
20260503080519 64 135 2.0 6.0 0.00 0.00 0.00 86 1017.5